Station History

Weather Underground - logo

Station Historical Data
Daily Summary for September 12, 2017 Units:  English    Metric   Both
« Previous Day
Next Day »
Daily Weekly Monthly Yearly Custom
  High: Low: Average:
Temperature: 95.9 °F 68.7 °F 81.5 °F
Dew Point: 69.2 °F 60.0 °F 65.8 °F
Humidity: 88 % 35 % 62 %
Wind Speed: 5.8 mph 0.0 mph 1.3 mph
Wind Gust: 5.8 mph - -
Wind:- - SW
Pressure: 29.85 in 29.69 in -
Precipitation: 0.00 in    
Historical Graphs
 
 
Tabular Data for September 12, 2017
Time Temperature Dew Point Pressure Wind Wind Speed Wind Gust Humidity Rainfall Rate (Hourly)
00:02 73.7 °F 66.4 °F 29.80 in Calm     78 % 0.00 in
00:07 73.5 °F 66.2 °F 29.80 in Calm     78 % 0.00 in
00:12 73.2 °F 65.9 °F 29.80 in Calm     78 % 0.00 in
00:17 72.8 °F 65.9 °F 29.80 in Calm     79 % 0.00 in
00:22 72.5 °F 66.0 °F 29.80 in SE 1.2 mph   80 % 0.00 in
00:27 72.3 °F 65.8 °F 29.80 in Calm     80 % 0.00 in
00:32 72.3 °F 65.8 °F 29.80 in Calm     80 % 0.00 in
00:37 72.2 °F 65.7 °F 29.81 in SE 1.2 mph   80 % 0.00 in
00:42 71.9 °F 65.8 °F 29.81 in SE 1.0 mph 1.0 mph 81 % 0.00 in
00:47 71.5 °F 65.4 °F 29.81 in Calm     81 % 0.00 in
00:52 71.3 °F 65.5 °F 29.81 in Calm     82 % 0.00 in
00:57 71.2 °F 65.4 °F 29.81 in Calm     82 % 0.00 in
01:02 71.0 °F 65.6 °F 29.81 in SE 1.2 mph   83 % 0.00 in
01:07 70.8 °F 65.4 °F 29.81 in SSE 1.2 mph 1.2 mph 83 % 0.00 in
01:12 70.6 °F 65.5 °F 29.82 in Calm     84 % 0.00 in
01:17 70.4 °F 65.3 °F 29.81 in Calm     84 % 0.00 in
01:22 70.3 °F 65.6 °F 29.82 in Calm     85 % 0.00 in
01:27 70.4 °F 65.7 °F 29.82 in SE 1.2 mph   85 % 0.00 in
01:32 70.3 °F 65.9 °F 29.81 in ESE 1.2 mph 1.2 mph 86 % 0.00 in
01:37 70.2 °F 65.8 °F 29.82 in East 2.3 mph 2.3 mph 86 % 0.00 in
01:42 70.2 °F 65.8 °F 29.82 in East 2.3 mph 2.3 mph 86 % 0.00 in
01:47 70.2 °F 66.1 °F 29.82 in Calm     87 % 0.00 in
01:52 70.2 °F 66.1 °F 29.82 in East 1.2 mph 1.2 mph 87 % 0.00 in
01:57 70.2 °F 66.1 °F 29.82 in East 1.2 mph 1.2 mph 87 % 0.00 in
02:02 70.2 °F 65.8 °F 29.82 in East 1.2 mph   86 % 0.00 in
02:07 70.3 °F 65.9 °F 29.82 in Calm     86 % 0.00 in
02:12 70.3 °F 65.9 °F 29.82 in Calm   0.2 mph 86 % 0.00 in
02:17 70.3 °F 66.2 °F 29.83 in Calm   0.1 mph 87 % 0.00 in
02:22 70.3 °F 66.2 °F 29.83 in East 1.2 mph   87 % 0.00 in
02:27 70.3 °F 66.2 °F 29.83 in Calm     87 % 0.00 in
02:32 70.2 °F 66.1 °F 29.83 in Calm     87 % 0.00 in
02:37 70.0 °F 66.0 °F 29.83 in Calm     87 % 0.00 in
02:42 69.9 °F 66.2 °F 29.83 in East 1.2 mph 1.2 mph 88 % 0.00 in
02:47 70.0 °F 66.3 °F 29.83 in East 1.2 mph 1.2 mph 88 % 0.00 in
02:52 70.1 °F 66.4 °F 29.83 in East 2.3 mph 2.3 mph 88 % 0.00 in
02:57 70.1 °F 66.0 °F 29.83 in Calm   0.1 mph 87 % 0.00 in
03:02 70.1 °F 66.0 °F 29.83 in East 2.3 mph 2.3 mph 87 % 0.00 in
03:07 70.0 °F 66.0 °F 29.83 in East 1.2 mph 1.2 mph 87 % 0.00 in
03:12 70.0 °F 66.0 °F 29.83 in East 2.3 mph 2.3 mph 87 % 0.00 in
03:18 69.9 °F 65.9 °F 29.83 in East 1.2 mph 1.2 mph 87 % 0.00 in
03:23 69.9 °F 65.9 °F 29.82 in East 2.3 mph 2.3 mph 87 % 0.00 in
03:28 70.0 °F 66.0 °F 29.83 in Calm   0.1 mph 87 % 0.00 in
03:33 70.1 °F 65.7 °F 29.83 in Calm     86 % 0.00 in
03:38 70.1 °F 65.7 °F 29.83 in East 1.2 mph 1.2 mph 86 % 0.00 in
03:43 70.1 °F 65.7 °F 29.83 in Calm     86 % 0.00 in
03:48 70.2 °F 65.5 °F 29.83 in East 1.2 mph 1.2 mph 85 % 0.00 in
03:53 70.3 °F 65.6 °F 29.82 in Calm     85 % 0.00 in
03:58 70.3 °F 65.6 °F 29.82 in Calm     85 % 0.00 in
04:03 70.4 °F 65.7 °F 29.83 in Calm     85 % 0.00 in
04:08 70.4 °F 65.7 °F 29.82 in East 1.2 mph 1.2 mph 85 % 0.00 in
04:13 70.3 °F 65.2 °F 29.83 in Calm     84 % 0.00 in
04:18 70.2 °F 65.5 °F 29.83 in Calm     85 % 0.00 in
04:23 70.0 °F 65.3 °F 29.83 in Calm     85 % 0.00 in
04:28 69.8 °F 65.1 °F 29.83 in Calm     85 % 0.00 in
04:33 69.5 °F 65.1 °F 29.83 in Calm     86 % 0.00 in
04:38 69.3 °F 64.9 °F 29.83 in Calm     86 % 0.00 in
04:43 69.1 °F 64.7 °F 29.83 in Calm     86 % 0.00 in
04:48 69.0 °F 65.0 °F 29.83 in Calm     87 % 0.00 in
04:53 69.1 °F 65.1 °F 29.83 in Calm     87 % 0.00 in
04:58 69.3 °F 64.9 °F 29.83 in Calm     86 % 0.00 in
05:03 69.4 °F 65.0 °F 29.83 in Calm     86 % 0.00 in
05:08 69.5 °F 65.1 °F 29.83 in Calm     86 % 0.00 in
05:13 69.5 °F 64.8 °F 29.83 in Calm     85 % 0.00 in
05:14 69.5 °F 65.1 °F 29.83 in Calm     86 % 0.00 in
05:19 69.4 °F 65.0 °F 29.83 in Calm     86 % 0.00 in
05:24 69.3 °F 64.9 °F 29.83 in Calm     86 % 0.00 in
05:29 69.3 °F 65.3 °F 29.83 in Calm     87 % 0.00 in
05:35 69.3 °F 65.3 °F 29.83 in Calm     87 % 0.00 in
05:40 69.2 °F 64.8 °F 29.83 in Calm     86 % 0.00 in
05:45 69.1 °F 65.1 °F 29.83 in Calm     87 % 0.00 in
05:50 69.0 °F 65.0 °F 29.83 in Calm     87 % 0.00 in
05:55 69.0 °F 65.0 °F 29.83 in Calm     87 % 0.00 in
06:00 68.9 °F 64.9 °F 29.83 in Calm     87 % 0.00 in
06:05 68.8 °F 64.8 °F 29.83 in Calm     87 % 0.00 in
06:10 68.8 °F 64.8 °F 29.83 in Calm     87 % 0.00 in
06:15 68.9 °F 64.9 °F 29.83 in Calm     87 % 0.00 in
06:20 68.8 °F 64.8 °F 29.83 in Calm     87 % 0.00 in
06:25 68.7 °F 64.3 °F 29.83 in Calm     86 % 0.00 in
06:30 68.8 °F 64.4 °F 29.83 in Calm     86 % 0.00 in
06:35 68.7 °F 64.3 °F 29.83 in Calm     86 % 0.00 in
06:40 68.8 °F 64.4 °F 29.83 in Calm     86 % 0.00 in
06:45 69.0 °F 64.6 °F 29.83 in Calm     86 % 0.00 in
06:55 68.9 °F 64.5 °F 29.84 in Calm     86 % 0.00 in
07:00 68.9 °F 64.5 °F 29.84 in Calm     86 % 0.00 in
07:05 68.9 °F 64.5 °F 29.84 in Calm     86 % 0.00 in
07:10 69.0 °F 64.6 °F 29.84 in Calm     86 % 0.00 in
07:15 69.0 °F 64.6 °F 29.84 in Calm     86 % 0.00 in
07:20 69.2 °F 64.5 °F 29.84 in Calm     85 % 0.00 in
07:25 69.6 °F 64.9 °F 29.84 in Calm     85 % 0.00 in
07:30 69.9 °F 64.8 °F 29.84 in East 1.2 mph   84 % 0.00 in
07:32 70.1 °F 65.0 °F 29.84 in East 1.2 mph   84 % 0.00 in
07:37 70.5 °F 65.1 °F 29.84 in Calm     83 % 0.00 in
07:42 71.0 °F 65.6 °F 29.84 in Calm     83 % 0.00 in
07:47 71.4 °F 65.6 °F 29.85 in Calm     82 % 0.00 in
07:52 72.0 °F 65.8 °F 29.85 in Calm     81 % 0.00 in
07:57 72.9 °F 66.0 °F 29.85 in Calm     79 % 0.00 in
08:02 74.2 °F 66.1 °F 29.85 in Calm     76 % 0.00 in
08:07 75.7 °F 66.0 °F 29.85 in East 1.0 mph 1.0 mph 72 % 0.00 in
08:12 76.6 °F 66.5 °F 29.85 in Calm     71 % 0.00 in
08:17 77.6 °F 67.0 °F 29.85 in SE 1.2 mph 1.2 mph 70 % 0.00 in
08:22 78.3 °F 66.9 °F 29.85 in Calm     68 % 0.00 in
08:27 79.1 °F 67.2 °F 29.85 in Calm     67 % 0.00 in
08:32 79.8 °F 67.0 °F 29.85 in Calm   0.7 mph 65 % 0.00 in
08:43 81.0 °F 67.2 °F 29.85 in SE 1.2 mph   63 % 0.00 in
08:48 81.4 °F 68.1 °F 29.85 in Calm     64 % 0.00 in
08:53 82.4 °F 68.5 °F 29.85 in Calm     63 % 0.00 in
08:58 82.2 °F 67.4 °F 29.85 in Calm     61 % 0.00 in
09:03 82.2 °F 68.3 °F 29.85 in SE 1.2 mph 1.2 mph 63 % 0.00 in
09:08 82.4 °F 68.5 °F 29.85 in SE 1.2 mph 1.2 mph 63 % 0.00 in
09:13 83.2 °F 68.8 °F 29.85 in SSE 1.2 mph 1.2 mph 62 % 0.00 in
09:18 83.8 °F 68.9 °F 29.85 in South 1.2 mph 1.2 mph 61 % 0.00 in
09:23 84.1 °F 68.2 °F 29.85 in South 2.3 mph 2.3 mph 59 % 0.00 in
09:28 84.0 °F 67.6 °F 29.85 in East 3.5 mph 3.5 mph 58 % 0.00 in
09:33 83.8 °F 67.9 °F 29.85 in SE 2.3 mph 2.3 mph 59 % 0.00 in
09:38 83.8 °F 67.9 °F 29.85 in SSE 2.3 mph 2.3 mph 59 % 0.00 in
09:43 84.0 °F 67.6 °F 29.85 in SSE 2.3 mph 2.3 mph 58 % 0.00 in
09:48 84.6 °F 68.2 °F 29.85 in NW 1.2 mph 1.2 mph 58 % 0.00 in
09:53 84.9 °F 67.5 °F 29.85 in South 2.3 mph 2.3 mph 56 % 0.00 in
09:58 85.1 °F 68.2 °F 29.85 in Calm     57 % 0.00 in
10:03 85.2 °F 67.7 °F 29.85 in SE 1.2 mph 1.2 mph 56 % 0.00 in
10:08 85.4 °F 67.9 °F 29.85 in SSE 2.0 mph 2.0 mph 56 % 0.00 in
10:13 85.5 °F 68.0 °F 29.85 in SSE 3.5 mph 3.5 mph 56 % 0.00 in
10:18 85.8 °F 67.2 °F 29.85 in NW 2.3 mph 2.3 mph 54 % 0.00 in
10:23 85.5 °F 67.0 °F 29.85 in SSE 3.5 mph 3.5 mph 54 % 0.00 in
10:28 85.6 °F 68.1 °F 29.84 in South 1.2 mph   56 % 0.00 in
10:33 85.4 °F 66.9 °F 29.85 in NW 1.2 mph   54 % 0.00 in
10:38 85.3 °F 66.8 °F 29.84 in Calm   0.1 mph 54 % 0.00 in
10:43 85.4 °F 66.9 °F 29.84 in NW 1.2 mph 1.2 mph 54 % 0.00 in
10:48 85.7 °F 66.6 °F 29.84 in WNW 2.3 mph 2.3 mph 53 % 0.00 in
10:53 86.3 °F 66.6 °F 29.84 in WNW 1.2 mph 1.2 mph 52 % 0.00 in
10:58 86.8 °F 67.6 °F 29.84 in SE 2.3 mph 2.3 mph 53 % 0.00 in
11:03 87.0 °F 66.7 °F 29.84 in NW 1.2 mph 1.2 mph 51 % 0.00 in
11:08 87.0 °F 67.2 °F 29.83 in Calm     52 % 0.00 in
11:13 87.4 °F 66.5 °F 29.83 in WNW 1.2 mph   50 % 0.00 in
11:18 88.2 °F 66.6 °F 29.83 in Calm   0.1 mph 49 % 0.00 in
11:23 88.9 °F 67.3 °F 29.83 in ENE 1.2 mph 1.2 mph 49 % 0.00 in
11:28 89.0 °F 67.4 °F 29.82 in SE 1.2 mph   49 % 0.00 in
11:33 90.0 °F 66.4 °F 29.82 in NW 1.2 mph 1.2 mph 46 % 0.00 in
11:38 89.9 °F 65.7 °F 29.82 in NW 1.2 mph 1.2 mph 45 % 0.00 in
11:43 90.0 °F 65.2 °F 29.82 in SSW 1.2 mph   44 % 0.00 in
11:48 90.5 °F 66.9 °F 29.82 in Calm   0.3 mph 46 % 0.00 in
11:53 91.1 °F 65.5 °F 29.82 in WNW 2.3 mph 2.3 mph 43 % 0.00 in
11:58 91.1 °F 65.5 °F 29.81 in SSE 3.5 mph 3.5 mph 43 % 0.00 in
12:03 90.7 °F 65.8 °F 29.81 in NNW 2.3 mph 2.3 mph 44 % 0.00 in
12:08 91.0 °F 66.1 °F 29.81 in NW 2.3 mph   44 % 0.00 in
12:13 91.4 °F 65.1 °F 29.81 in NW 1.2 mph   42 % 0.00 in
12:18 91.8 °F 65.4 °F 29.80 in WNW 1.2 mph 1.2 mph 42 % 0.00 in
12:23 92.1 °F 65.0 °F 29.80 in West 1.2 mph 1.2 mph 41 % 0.00 in
12:28 91.9 °F 67.5 °F 29.80 in North 1.2 mph 1.2 mph 45 % 0.00 in
12:33 92.3 °F 67.2 °F 29.80 in NW 2.0 mph 2.0 mph 44 % 0.00 in
12:38 92.6 °F 66.2 °F 29.79 in NW 1.2 mph 1.2 mph 42 % 0.00 in
12:43 92.5 °F 66.7 °F 29.79 in East 2.3 mph   43 % 0.00 in
12:48 92.9 °F 66.4 °F 29.79 in East 1.2 mph   42 % 0.00 in
12:53 93.2 °F 66.7 °F 29.78 in NW 3.5 mph 3.5 mph 42 % 0.00 in
12:58 93.4 °F 68.2 °F 29.78 in WNW 1.2 mph 1.2 mph 44 % 0.00 in
13:03 93.2 °F 66.7 °F 29.78 in NW 3.5 mph 3.5 mph 42 % 0.00 in
13:08 93.1 °F 65.9 °F 29.78 in NW 3.5 mph 3.5 mph 41 % 0.00 in
13:13 93.4 °F 66.2 °F 29.78 in WSW 3.5 mph 3.5 mph 41 % 0.00 in
13:18 93.1 °F 64.5 °F 29.78 in WNW 2.3 mph 2.3 mph 39 % 0.00 in
13:23 93.5 °F 65.6 °F 29.77 in NW 3.0 mph 3.0 mph 40 % 0.00 in
13:28 93.6 °F 66.4 °F 29.77 in SSE 2.3 mph 2.3 mph 41 % 0.00 in
13:33 94.4 °F 67.8 °F 29.77 in ENE 1.0 mph   42 % 0.00 in
13:38 94.5 °F 65.7 °F 29.77 in NNW 3.5 mph 3.5 mph 39 % 0.00 in
13:43 94.4 °F 67.8 °F 29.77 in WSW 2.0 mph 2.0 mph 42 % 0.00 in
13:48 94.8 °F 66.7 °F 29.76 in NW 3.5 mph 3.5 mph 40 % 0.00 in
13:53 94.7 °F 65.9 °F 29.76 in WNW 2.3 mph 2.3 mph 39 % 0.00 in
13:58 95.2 °F 68.5 °F 29.76 in SE 2.3 mph 2.3 mph 42 % 0.00 in
14:03 95.9 °F 67.7 °F 29.76 in NW 2.0 mph 2.0 mph 40 % 0.00 in
14:08 95.1 °F 67.7 °F 29.76 in NW 2.3 mph 2.3 mph 41 % 0.00 in
14:13 94.4 °F 66.4 °F 29.75 in NW 3.5 mph 3.5 mph 40 % 0.00 in
14:18 94.0 °F 66.7 °F 29.75 in ESE 3.5 mph 3.5 mph 41 % 0.00 in
14:24 94.3 °F 67.0 °F 29.75 in NW 3.5 mph 3.5 mph 41 % 0.00 in
14:29 94.0 °F 66.7 °F 29.75 in NW 3.5 mph 3.5 mph 41 % 0.00 in
14:33 94.3 °F 67.0 °F 29.75 in WNW 3.5 mph 3.5 mph 41 % 0.00 in
14:39 94.5 °F 69.2 °F 29.75 in NW 3.5 mph 3.5 mph 44 % 0.00 in
14:44 94.5 °F 67.2 °F 29.75 in NW 3.5 mph 3.5 mph 41 % 0.00 in
14:49 94.6 °F 66.5 °F 29.74 in West 4.0 mph 4.0 mph 40 % 0.00 in
14:54 94.7 °F 65.9 °F 29.74 in WNW 2.3 mph 2.3 mph 39 % 0.00 in
14:59 94.9 °F 66.8 °F 29.74 in SW 3.5 mph 3.5 mph 40 % 0.00 in
15:04 94.6 °F 66.5 °F 29.74 in NW 3.5 mph 3.5 mph 40 % 0.00 in
15:09 94.3 °F 65.5 °F 29.74 in WSW 3.5 mph 3.5 mph 39 % 0.00 in
15:14 94.2 °F 64.7 °F 29.73 in West 3.5 mph 3.5 mph 38 % 0.00 in
15:19 94.4 °F 65.6 °F 29.73 in WNW 4.6 mph 4.6 mph 39 % 0.00 in
15:24 94.3 °F 65.5 °F 29.73 in NW 3.5 mph 3.5 mph 39 % 0.00 in
15:29 94.5 °F 65.7 °F 29.73 in NW 3.5 mph 3.5 mph 39 % 0.00 in
15:34 94.4 °F 64.9 °F 29.73 in NNE 3.5 mph 3.5 mph 38 % 0.00 in
15:39 94.6 °F 66.5 °F 29.73 in NW 2.3 mph 2.3 mph 40 % 0.00 in
15:44 94.7 °F 65.9 °F 29.72 in NW 5.0 mph 5.0 mph 39 % 0.00 in
15:49 94.5 °F 65.7 °F 29.72 in NW 2.3 mph 2.3 mph 39 % 0.00 in
15:54 94.5 °F 65.7 °F 29.72 in NW 3.5 mph 3.5 mph 39 % 0.00 in
15:59 94.4 °F 65.6 °F 29.72 in NNW 1.2 mph 1.2 mph 39 % 0.00 in
16:04 94.4 °F 65.6 °F 29.72 in WNW 3.5 mph 3.5 mph 39 % 0.00 in
16:09 94.2 °F 65.4 °F 29.72 in WNW 3.5 mph 3.5 mph 39 % 0.00 in
16:14 94.2 °F 65.4 °F 29.72 in WNW 3.5 mph 3.5 mph 39 % 0.00 in
16:19 94.2 °F 64.7 °F 29.71 in NW 3.5 mph 3.5 mph 38 % 0.00 in
16:24 94.4 °F 64.1 °F 29.71 in North 4.0 mph 4.0 mph 37 % 0.00 in
16:29 94.6 °F 64.3 °F 29.71 in WNW 2.3 mph 2.3 mph 37 % 0.00 in
16:34 94.5 °F 64.2 °F 29.71 in NW 3.5 mph 3.5 mph 37 % 0.00 in
16:39 94.6 °F 64.3 °F 29.71 in NNW 1.2 mph 1.2 mph 37 % 0.00 in
16:44 94.7 °F 64.4 °F 29.71 in NW 2.3 mph 2.3 mph 37 % 0.00 in
16:49 94.7 °F 63.6 °F 29.71 in NW 3.5 mph 3.5 mph 36 % 0.00 in
16:54 94.6 °F 64.3 °F 29.71 in NW 2.3 mph 2.3 mph 37 % 0.00 in
16:59 94.5 °F 64.2 °F 29.70 in NW 3.5 mph 3.5 mph 37 % 0.00 in
17:04 94.6 °F 62.7 °F 29.70 in WNW 3.5 mph 3.5 mph 35 % 0.00 in
17:09 94.6 °F 62.7 °F 29.70 in NW 3.5 mph 3.5 mph 35 % 0.00 in
17:14 94.5 °F 62.6 °F 29.70 in WNW 3.5 mph 3.5 mph 35 % 0.00 in
17:19 94.4 °F 64.1 °F 29.70 in WNW 2.3 mph 2.3 mph 37 % 0.00 in
17:24 94.3 °F 63.2 °F 29.70 in West 3.5 mph 3.5 mph 36 % 0.00 in
17:29 94.1 °F 63.9 °F 29.70 in NNW 3.5 mph 3.5 mph 37 % 0.00 in
17:34 94.2 °F 65.4 °F 29.70 in WNW 2.0 mph 2.0 mph 39 % 0.00 in
17:39 94.2 °F 64.7 °F 29.69 in NW 2.3 mph 2.3 mph 38 % 0.00 in
17:44 93.9 °F 64.4 °F 29.70 in WNW 3.5 mph 3.5 mph 38 % 0.00 in
17:49 93.8 °F 64.3 °F 29.69 in NW 3.0 mph 3.0 mph 38 % 0.00 in
17:54 93.5 °F 64.8 °F 29.69 in NNE 2.0 mph 2.0 mph 39 % 0.00 in
17:59 93.1 °F 64.5 °F 29.69 in NW 2.3 mph 2.3 mph 39 % 0.00 in
18:04 92.8 °F 64.2 °F 29.69 in NNW 2.3 mph 2.3 mph 39 % 0.00 in
18:09 92.6 °F 64.8 °F 29.69 in WNW 1.2 mph 1.2 mph 40 % 0.00 in
18:14 92.3 °F 65.2 °F 29.69 in WNW 1.2 mph 1.2 mph 41 % 0.00 in
18:19 91.9 °F 64.1 °F 29.69 in WNW 1.2 mph 1.2 mph 40 % 0.00 in
18:24 91.7 °F 63.2 °F 29.69 in NW 1.2 mph 1.2 mph 39 % 0.00 in
18:29 91.5 °F 63.8 °F 29.69 in NW 2.3 mph 2.3 mph 40 % 0.00 in
18:34 91.3 °F 64.3 °F 29.69 in Calm     41 % 0.00 in
18:39 90.9 °F 65.3 °F 29.69 in NW 1.2 mph   43 % 0.00 in
18:44 90.5 °F 64.9 °F 29.69 in Calm     43 % 0.00 in
18:50 90.2 °F 66.0 °F 29.69 in West 1.2 mph   45 % 0.00 in
18:55 89.8 °F 65.0 °F 29.69 in WNW 1.2 mph 1.2 mph 44 % 0.00 in
19:00 89.7 °F 65.5 °F 29.69 in Calm     45 % 0.00 in
19:05 89.4 °F 65.3 °F 29.69 in Calm     45 % 0.00 in
19:10 88.9 °F 65.4 °F 29.69 in Calm     46 % 0.00 in
19:15 88.6 °F 65.2 °F 29.69 in NNW 1.2 mph   46 % 0.00 in
19:20 88.4 °F 65.0 °F 29.69 in NNW 1.2 mph   46 % 0.00 in
19:25 88.2 °F 65.4 °F 29.69 in Calm     47 % 0.00 in
19:30 87.8 °F 65.7 °F 29.69 in Calm     48 % 0.00 in
19:35 87.2 °F 66.3 °F 29.69 in Calm     50 % 0.00 in
19:40 86.5 °F 66.2 °F 29.70 in Calm     51 % 0.00 in
19:45 85.9 °F 65.7 °F 29.70 in Calm     51 % 0.00 in
19:50 85.5 °F 65.3 °F 29.70 in Calm     51 % 0.00 in
19:55 85.3 °F 66.2 °F 29.70 in Calm     53 % 0.00 in
20:00 84.9 °F 65.3 °F 29.70 in Calm     52 % 0.00 in
20:05 84.8 °F 65.2 °F 29.70 in Calm     52 % 0.00 in
20:10 84.9 °F 65.9 °F 29.70 in Calm     53 % 0.00 in
20:15 84.5 °F 66.6 °F 29.70 in Calm     55 % 0.00 in
20:20 84.0 °F 66.6 °F 29.71 in Calm     56 % 0.00 in
20:24 83.6 °F 66.2 °F 29.71 in Calm     56 % 0.00 in
20:28 83.2 °F 66.9 °F 29.71 in Calm     58 % 0.00 in
20:33 82.7 °F 66.9 °F 29.71 in Calm     59 % 0.00 in
20:38 82.3 °F 68.0 °F 29.71 in Calm     62 % 0.00 in
20:43 81.9 °F 67.6 °F 29.71 in Calm     62 % 0.00 in
20:48 81.6 °F 67.8 °F 29.71 in Calm     63 % 0.00 in
20:53 81.3 °F 68.0 °F 29.71 in Calm     64 % 0.00 in
20:58 81.0 °F 68.6 °F 29.72 in Calm     66 % 0.00 in
21:03 80.7 °F 68.3 °F 29.72 in Calm     66 % 0.00 in
21:08 80.4 °F 67.6 °F 29.72 in Calm     65 % 0.00 in
21:13 80.1 °F 66.8 °F 29.72 in Calm     64 % 0.00 in
21:18 79.8 °F 67.0 °F 29.72 in Calm     65 % 0.00 in
21:23 79.6 °F 66.8 °F 29.72 in Calm     65 % 0.00 in
21:28 79.3 °F 67.0 °F 29.72 in Calm     66 % 0.00 in
21:33 79.1 °F 66.8 °F 29.72 in Calm     66 % 0.00 in
21:38 79.0 °F 67.5 °F 29.72 in Calm     68 % 0.00 in
21:43 79.0 °F 66.7 °F 29.72 in Calm     66 % 0.00 in
21:48 79.3 °F 67.0 °F 29.72 in Calm     66 % 0.00 in
21:53 79.2 °F 67.3 °F 29.72 in Calm     67 % 0.00 in
21:58 79.0 °F 67.5 °F 29.72 in Calm     68 % 0.00 in
22:03 78.8 °F 66.9 °F 29.72 in Calm     67 % 0.00 in
22:08 78.4 °F 66.5 °F 29.72 in Calm     67 % 0.00 in
22:13 78.0 °F 67.0 °F 29.72 in Calm   0.1 mph 69 % 0.00 in
22:18 77.2 °F 66.7 °F 29.72 in Calm     70 % 0.00 in
22:23 76.7 °F 66.2 °F 29.72 in Calm     70 % 0.00 in
22:28 76.5 °F 66.4 °F 29.73 in Calm     71 % 0.00 in
22:33 76.3 °F 66.2 °F 29.73 in Calm     71 % 0.00 in
22:39 76.2 °F 66.1 °F 29.73 in East 1.0 mph   71 % 0.00 in
22:44 76.1 °F 66.4 °F 29.74 in SE 1.2 mph 1.2 mph 72 % 0.00 in
22:49 75.7 °F 66.0 °F 29.74 in SE 3.5 mph 3.5 mph 72 % 0.00 in
22:54 75.1 °F 65.5 °F 29.74 in SE 1.2 mph 1.2 mph 72 % 0.00 in
22:59 74.9 °F 64.9 °F 29.75 in SE 3.5 mph 3.5 mph 71 % 0.00 in
23:04 74.8 °F 63.9 °F 29.75 in ESE 3.5 mph 3.5 mph 69 % 0.00 in
23:09 74.8 °F 63.1 °F 29.75 in ESE 3.5 mph 3.5 mph 67 % 0.00 in
23:14 74.8 °F 62.7 °F 29.75 in ENE 3.5 mph 3.5 mph 66 % 0.00 in
23:19 74.8 °F 62.7 °F 29.75 in SSE 4.0 mph 4.0 mph 66 % 0.00 in
23:24 74.8 °F 62.2 °F 29.75 in ESE 2.3 mph 2.3 mph 65 % 0.00 in
23:29 74.7 °F 61.7 °F 29.76 in ESE 3.5 mph 3.5 mph 64 % 0.00 in
23:34 74.7 °F 61.7 °F 29.76 in ESE 2.3 mph 2.3 mph 64 % 0.00 in
23:39 74.7 °F 61.3 °F 29.76 in ENE 1.2 mph 1.2 mph 63 % 0.00 in
23:44 74.6 °F 61.2 °F 29.76 in East 2.3 mph 2.3 mph 63 % 0.00 in
23:49 74.6 °F 60.7 °F 29.76 in ENE 3.0 mph 3.0 mph 62 % 0.00 in
23:54 74.7 °F 60.4 °F 29.76 in East 5.8 mph 5.8 mph 61 % 0.00 in
23:59 74.8 °F 60.0 °F 29.76 in ENE 3.0 mph 3.0 mph 60 % 0.00 in
Park Place, Exeter, Tulare County, California, USA
Compliments of Weather Underground - 2.75 mb